Regional Weather Roundup
Issued by NWS Jackson, KY

Home | Current Version | Previous Version | Graphics & Text | Print | Product List | Glossary On
Versions: 1 2 3 4 5 6 7 8 9 10 11 12 13 14 15 16 17 18 19 20 21 22 23 24 25 26 27 28 29 30 31 32 33 34 35 36 37 38 39 40 41 42 43 44 45 46 47 48 49 50
000
ASUS43 KJKL 280219
RWRJKL

EAST KENTUCKY HOURLY WEATHER ROUNDUP
NATIONAL WEATHER SERVICE JACKSON KY
1000 PM EDT SUN JUL 27 2014

NOTE: "FAIR" INDICATES FEW OR NO CLOUDS BELOW 12,000 FEET WITH
NO SIGNIFICANT WEATHER AND/OR OBSTRUCTIONS TO VISIBILITY.

* THESE REPORTS ARE NOT UNDER NWS QUALITY CONTROL AND MAY NOT
  REPORT WEATHER SUCH AS PRECIPITATION AND FOG.

KYZ079-080-083-085-087-088-110-112-115-119-120-280300
...EASTERN KENTUCKY...

CITY           SKY/WX    TMP DP  RH WIND       PRES   REMARKS
JACKSON        PTCLDY    72  70  93 VRB3      29.83R FOG
LONDON         MOCLDY    74  69  85 CALM      29.85R
SOMERSET*      CLOUDY    77  73  88 W8        29.85R
MONTICELLO*    CLOUDY    74  71  90 W7        29.87R
WILLIAMSBURG*    N/A     68  68 100 NW3       29.89
MIDDLESBORO*   CLOUDY    70  69  96 E3        29.90R
HARLAN APT*    CLOUDY    70  70 100 MISG      29.89R VSB 1
HAZARD APT*    MOCLDY    73  73 100 SW5       29.84
BLACK MTN*       N/A     63  63 100 SW10        N/A
PIKEVILLE APT* PTCLDY    72  68  88 S5        29.82
MOREHEAD APT*  MOCLDY    73  68  83 N10G20    29.83R
ASHLAND*       PTCLDY    70  64  83 W6        29.73R
$$

KYZ035-036-041-042-044-050-067-078-099-280300
...CENTRAL KENTUCKY...

CITY           SKY/WX    TMP DP  RH WIND       PRES   REMARKS
MT STERLING*   CLEAR     77  68  73 NW6       29.80R
FLEMING/MASON* CLOUDY    69  67  93 W10G17    29.80F
DANVILLE*      CLEAR     79  66  65 NW9       29.83R
RICHMOND*      CLEAR     77  70  78 W8        29.81R
LEXINGTON      CLEAR     80  66  62 W9        29.80R
FRANKFORT      LGT RAIN  73  69  87 NW9G17    29.81R
$$

KYZ091>093-OHZ055-061-077-WVZ005-015-034-035-042-280300
...SOUTHERN OHIO/WEST VIRGINIA...

CITY           SKY/WX    TMP DP  RH WIND       PRES   REMARKS
COVINGTON      PTCLDY    70  67  90 W8        29.79R
COLUMBUS       PTCLDY    68  63  84 CALM      29.70R
DAYTON         PTCLDY    74  61  63 W18G24    29.76R
WILMINGTON     MOCLDY    71  66  84 W7        29.76R
HUNTINGTON     MOCLDY    70  70 100 N3        29.76R
CHARLESTON     TSTM      77  70  79 W6        29.73F
PINEVILLE*     MOCLDY    72  72 100 MISG      29.87F FOG
BECKLEY        MOCLDY    72  65  78 W10       29.85F
BLUEFIELD      PTCLDY    72  62  71 W9        29.89F
$$

VAZ002-007-008-TNZ017-027-036-066-071-280300
...SOUTHWEST VIRGINIA/EAST TENNESSEE...

CITY           SKY/WX    TMP DP  RH WIND       PRES   REMARKS
WISE*          MOCLDY    70  66  88 SW13      29.93S
JONESVILLE*    LGT RAIN  68  68 100 CALM      29.93S
ABINGDON*      CLOUDY    69  67  94 W6        29.92F
BRISTOL        CLOUDY    69  64  84 W9        29.91F
KNOXVILLE      LGT RAIN  72  69  90 S16G26    29.88F
OAK RIDGE      CLOUDY    74  70  87 NW3       29.89F
CROSSVILLE     LGT RAIN  79  71  76 SW12G21   29.93S
NASHVILLE      CLOUDY    86  77  74 SW7       29.87S HX  97
$$

...KEY TO REMARKS...
VSB - VISIBILITY IN MILES
WCI - WIND CHILL INDEX
HX  - HEAT INDEX

$$


USA.gov is the U.S. government's official web portal to all federal, state and local government web resources and services.